Weather History for KCKN - January, 2013

Change the Weather History Date:

Thursday, January 3, 2013

  Actual Average Record
Temperature  
Mean Temperature 10 °F -  
Max Temperature 21 °F 13 °F 35 °F (2007)
Min Temperature -2 °F 0 °F -25 °F (2005)
Degree Days  
Heating Degree Days 56    
Moisture  
Dew Point 6 °F    
Average Humidity 86    
Maximum Humidity 93    
Minimum Humidity 78    
Precipitation  
Precipitation 0.00 in - - ()
Sea Level Pressure  
Sea Level Pressure 30.11 in    
Wind  
Wind Speed 11 mph (SW)    
Max Wind Speed 23 mph    
Max Gust Speed 28 mph    
Visibility 9 miles    
Events Snow    
Averages and records for this station are not official NWS values.
T = Trace of Precipitation, MM = Missing Value Source: NWS Daily Summary

Daily Weather History Graph

Daily Weather History Graph

Search for Another Location

Airport or City:

Trip Planner

Search our weather history database for the weather conditions in past years. The results will help you decide how hot, cold, wet, or windy it might be!

Date:

Astronomy

Jan. 03, 2013 Rise Set
Actual Time 8:15 AM CST 4:47 PM CST
Civil Twilight 7:39 AM CST 5:22 PM CST
Nautical Twilight 7:00 AM CST 6:02 PM CST
Astronomical Twilight 6:22 AM CST 6:39 PM CST
Moon 11:56 PM CST (1/3) 10:58 AM CST (1/3)
Length of Visible Light 9h 43m
Length of Day
8h 31m
Waning Gibbous, 65% of the Moon is Illuminated
Jan 3
Waning Gibbous
Jan 4
Last Quarter
Jan 11
New
Jan 18
First Quarter
Jan 26
Full

Hourly Weather History & Observations

Time (CST) Temp. Windchill Dew Point Humidity Pressure Visibility Wind Dir Wind Speed Gust Speed Precip Events Conditions
12:15 AM 1.4 °F -13.5 °F -0.4 °F 92% 30.24 in 10.0 mi NNW 9.2 mph - N/A   Clear
12:35 AM 1.4 °F -14.5 °F -0.4 °F 92% 30.24 in 10.0 mi NNW 10.4 mph - N/A   Clear
12:54 AM 1.4 °F -15.3 °F -2.2 °F 85% 30.24 in 10.0 mi NNW 11.5 mph - N/A   Clear
1:15 AM 1.4 °F -12.5 °F -2.2 °F 85% 30.23 in 10.0 mi NNW 8.1 mph - N/A   Clear
1:35 AM 1.4 °F -13.5 °F -2.2 °F 85% 30.23 in 10.0 mi NNW 9.2 mph - N/A   Clear
1:54 AM 1.4 °F -13.5 °F -2.2 °F 85% 30.24 in 10.0 mi NNW 9.2 mph - N/A   Clear
2:15 AM 1.4 °F -15.3 °F -2.2 °F 85% 30.25 in 10.0 mi NNW 11.5 mph - N/A   Clear
2:35 AM -0.4 °F -13.4 °F -2.2 °F 92% 30.26 in 10.0 mi NNW 6.9 mph - N/A   Clear
2:54 AM -0.4 °F -13.4 °F -4.0 °F 85% 30.27 in 10.0 mi NNW 6.9 mph - N/A   Clear
3:15 AM -0.4 °F -13.4 °F -4.0 °F 85% 30.27 in 10.0 mi NNW 6.9 mph - N/A   Clear
3:34 AM -0.4 °F -13.4 °F -5.8 °F 78% 30.27 in 10.0 mi NW 6.9 mph - N/A   Clear
3:54 AM -0.4 °F - -5.8 °F 78% 30.26 in 10.0 mi Calm Calm - N/A   Clear
4:15 AM -0.4 °F - -5.8 °F 78% 30.26 in 7.0 mi Calm Calm - N/A   Clear
4:34 AM -0.4 °F - -4.0 °F 85% 30.26 in 10.0 mi Calm Calm - N/A   Clear
4:54 AM -2.2 °F - -5.8 °F 85% 30.25 in 10.0 mi Calm Calm - N/A Snow Light Snow
5:15 AM -2.2 °F - -5.8 °F 85% 30.26 in 7.0 mi Calm Calm - N/A Snow Light Snow
5:34 AM -0.4 °F - -4.0 °F 85% 30.26 in 10.0 mi Calm Calm - N/A   Overcast
5:54 AM -0.4 °F -8.3 °F -2.2 °F 92% 30.25 in 10.0 mi SW 3.5 mph - N/A   Overcast
6:15 AM -0.4 °F -8.3 °F -2.2 °F 92% 30.26 in 10.0 mi SW 3.5 mph - N/A   Mostly Cloudy
6:34 AM -0.4 °F -10.4 °F -2.2 °F 92% 30.25 in 10.0 mi SSW 4.6 mph - N/A   Overcast
6:54 AM 1.4 °F -6.2 °F -2.2 °F 85% 30.25 in 10.0 mi SSW 3.5 mph - N/A   Overcast
7:15 AM -0.4 °F -12.0 °F -2.2 °F 92% 30.25 in 10.0 mi SSW 5.8 mph - N/A   Scattered Clouds
7:34 AM -0.4 °F -13.4 °F -2.2 °F 92% 30.24 in 10.0 mi SSW 6.9 mph - N/A   Clear
7:54 AM 1.4 °F -9.9 °F -2.2 °F 85% 30.24 in 10.0 mi South 5.8 mph - N/A   Mostly Cloudy
8:15 AM 1.4 °F -11.3 °F -2.2 °F 85% 30.22 in 10.0 mi South 6.9 mph - N/A   Overcast
8:34 AM 1.4 °F -12.5 °F -2.2 °F 85% 30.21 in 10.0 mi South 8.1 mph - N/A Snow Light Snow
8:54 AM 3.2 °F -9.1 °F -0.4 °F 85% 30.21 in 7.0 mi SSW 6.9 mph - N/A Snow Light Snow
9:15 AM 5.0 °F -10.0 °F 1.4 °F 85% 30.20 in 4.0 mi SSW 10.4 mph - N/A Snow Light Snow
9:34 AM 6.8 °F -7.8 °F 1.4 °F 79% 30.19 in 5.0 mi SSW 10.4 mph - N/A Snow Light Snow
9:54 AM 6.8 °F -7.8 °F 3.2 °F 85% 30.19 in 7.0 mi SSW 10.4 mph - N/A Snow Light Snow
10:34 AM 10.4 °F -3.3 °F 6.8 °F 85% 30.19 in 10.0 mi SSW 10.4 mph - N/A   Clear
10:55 AM 10.4 °F -4.8 °F 6.8 °F 85% 30.17 in 10.0 mi SSW 12.7 mph - N/A   Scattered Clouds
11:14 AM 12.2 °F -3.7 °F 8.6 °F 85% 30.17 in 10.0 mi SSW 15.0 mph - N/A   Mostly Cloudy
11:34 AM 12.2 °F -5.3 °F 8.6 °F 85% 30.15 in 10.0 mi SSW 18.4 mph - N/A   Mostly Cloudy
11:55 AM 12.2 °F -4.8 °F 10.4 °F 92% 30.13 in 7.0 mi SSW 17.3 mph - N/A   Clear
12:14 PM 14.0 °F -3.0 °F 10.4 °F 86% 30.12 in 2.5 mi SSW 18.4 mph - N/A Snow Light Snow
12:34 PM 15.8 °F -0.2 °F 10.4 °F 79% 30.11 in 7.0 mi SSW 17.3 mph - N/A Snow Light Snow
12:55 PM 17.6 °F 1.3 °F 12.2 °F 79% 30.09 in 10.0 mi SW 19.6 mph - N/A   Clear
1:14 PM 17.6 °F 1.7 °F 14.0 °F 86% 30.08 in 10.0 mi SSW 18.4 mph - N/A   Clear
1:34 PM 19.4 °F 3.6 °F 15.8 °F 86% 30.07 in 10.0 mi SW 19.6 mph - N/A   Clear
1:55 PM 19.4 °F 4.1 °F 15.8 °F 86% 30.06 in 10.0 mi SW 18.4 mph - N/A   Clear
2:14 PM 21.2 °F 6.0 °F 15.8 °F 80% 30.05 in 10.0 mi SW 19.6 mph - N/A   Clear
2:34 PM 21.2 °F 6.0 °F 15.8 °F 80% 30.05 in 7.0 mi SW 19.6 mph - N/A   Clear
2:55 PM 21.2 °F 6.4 °F 15.8 °F 80% 30.05 in 10.0 mi SW 18.4 mph - N/A   Clear
3:34 PM 21.2 °F 5.6 °F 15.8 °F 80% 30.03 in 10.0 mi SSW 20.7 mph - N/A   Clear
3:55 PM 19.4 °F 4.1 °F 15.8 °F 86% 30.03 in 10.0 mi SSW 18.4 mph - N/A   Clear
4:14 PM 19.4 °F 3.6 °F 15.8 °F 86% 30.02 in 10.0 mi SSW 19.6 mph - N/A   Clear
4:35 PM 19.4 °F 3.6 °F 15.8 °F 86% 30.01 in 10.0 mi SSW 19.6 mph 24.2 mph N/A   Clear
4:55 PM 19.4 °F 4.1 °F 15.8 °F 86% 30.01 in 10.0 mi SSW 18.4 mph - N/A   Clear
5:14 PM 19.4 °F 4.1 °F 15.8 °F 86% 30.00 in 10.0 mi SSW 18.4 mph - N/A   Clear
5:35 PM 17.6 °F 0.5 °F 15.8 °F 93% 29.99 in 10.0 mi SSW 21.9 mph - N/A   Clear
5:54 PM 17.6 °F 0.9 °F 15.8 °F 93% 29.98 in 10.0 mi SSW 20.7 mph - N/A   Clear
6:14 PM 17.6 °F 0.5 °F 15.8 °F 93% 29.96 in 10.0 mi SSW 21.9 mph - N/A   Clear
6:35 PM 17.6 °F 0.9 °F 15.8 °F 93% 29.95 in 10.0 mi SSW 20.7 mph - N/A   Clear
6:54 PM 17.6 °F 0.1 °F 15.8 °F 93% 29.94 in 10.0 mi SSW 23.0 mph 27.6 mph N/A   Clear
7:14 PM 17.6 °F 1.3 °F 15.8 °F 93% 29.94 in 10.0 mi SSW 19.6 mph - N/A   Clear
7:35 PM 17.6 °F 1.3 °F 15.8 °F 93% 29.93 in 10.0 mi SSW 19.6 mph - N/A   Clear
7:54 PM 17.6 °F 1.7 °F 14.0 °F 86% 29.94 in 10.0 mi SSW 18.4 mph - N/A   Clear
8:14 PM 17.6 °F 2.7 °F 14.0 °F 86% 29.93 in 10.0 mi SSW 16.1 mph - N/A   Clear
8:35 PM 17.6 °F 0.5 °F 14.0 °F 86% 29.91 in 10.0 mi SSW 21.9 mph - N/A   Clear
8:54 PM 17.6 °F 3.2 °F 14.0 °F 86% 29.91 in 10.0 mi SSW 15.0 mph - N/A   Clear
9:14 PM 17.6 °F 3.7 °F 12.2 °F 79% 29.91 in 10.0 mi SSW 13.8 mph - N/A   Clear
9:35 PM 15.8 °F 1.4 °F 12.2 °F 86% 29.91 in 10.0 mi SSW 13.8 mph - N/A   Clear
9:54 PM 15.8 °F 1.4 °F 12.2 °F 86% 29.91 in 10.0 mi SSW 13.8 mph - N/A   Clear
10:14 PM 15.8 °F 1.4 °F 12.2 °F 86% 29.91 in 10.0 mi SSW 13.8 mph - N/A   Clear
10:35 PM 15.8 °F 1.4 °F 10.4 °F 79% 29.90 in 10.0 mi SSW 13.8 mph - N/A   Clear
10:54 PM 15.8 °F 3.4 °F 10.4 °F 79% 29.91 in 10.0 mi SSW 10.4 mph - N/A   Clear
11:14 PM 15.8 °F 4.2 °F 10.4 °F 79% 29.91 in 10.0 mi SSW 9.2 mph - N/A   Clear
11:35 PM 14.0 °F 2.0 °F 10.4 °F 86% 29.91 in 10.0 mi SSW 9.2 mph - N/A   Clear
11:54 PM 14.0 °F 1.2 °F 8.6 °F 79% 29.92 in 10.0 mi SSW 10.4 mph - N/A   Clear